Weather in Galaasiya

Uzbekistan     39°51′29″N   64°26′50″E
temp.,
°C
wind,
m/s
gust,
m/s
humid.,
%
clouds,
%
prec.,
mm/h
press.,
hPa
HPBL,
m
1 march, mon
mon123:00+9ene342477 0.0 101933
02:00+9se45280 0.0 101745
05:00+7se56380 0.0 101797
08:00+6se59460 0.0 1018188
11:00+14ssw812340 0.0 1018753
14:00+17sw79200 0.0 1017840
17:00+18wsw45160 0.0 10171008
20:00+14nw342734 0.0 101969
2 march, tue
tue223:00+12nnw343067 0.0 102063
02:00+10nne233422 0.0 102122
05:00+10n553259 0.0 102167
08:00+9n343581 0.0 102269
11:00+13n452662 0.0 1022449
14:00+17n442121 0.0 10211181
17:00+16n552221 0.0 10211176
20:00+13nne58290 0.0 1023374
3 march, wed
wed323:00+10nne693932 0.0 1024340
02:00+9nne5846100 0.0 1023344
05:00+7nne585696 0.0 1023249
08:00+6n475847 0.0 1023172
11:00+12n443935 0.0 1022406
14:00+15nw22303 0.0 10211258
17:00+16nw32281 0.0 10191627
20:00+13n45350 0.0 1019256
4 march, thu
thu423:00+11ne34410 0.0 1019103
02:00+10ene23460 0.0 101832
05:00+10se33430 0.0 101827
08:00+10se44410 0.0 101867
11:00+15s45330 0.4 1017452
14:00+19sw793236 1.0 10161674
17:00+19wnw993134 1.1 10181779
20:00+12nw8115567 0.0 10221095
5 march, fri
fri523:00+9nw796667 0.2 10261096
02:00+9n464380 0.2 1028642
05:00+7n354940 0.2 1029142
08:00+5ne57640 0.0 1030238
11:00+10ene45310 0.0 10271019
14:00+12ne23200 0.0 1023950
17:00+15ne671817 0.0 1019638
20:00+13ne7937100 0.0 1017400